{"data":{"norad_id":33321,"intl_designator":"2008-041B","name":"HUANJING 1B (HJ-1B)","alt_names":[],"object_type":"PAYLOAD","status":"ACTIVE","operator":null,"country":"PRC","launch_date":"2008-09-06","launch_site_code":"TAISC","launch_vehicle":null,"mission":null,"orbit_class":"UNKNOWN","rcs_meters":1.372,"size_class":null,"mass_kg":null,"dimensions":null,"purposes":["earth_obs"],"wikipedia_slug":null,"has_3d_model":false,"image_url":null,"decayed_at":null,"tle_current":{"epoch":"2026-09-20T05:54:04.648896Z","epoch_age_seconds":29852,"freshness":"FRESH","line1":"1 33321U 08041B   26263.24588714  .00000387  00000+0  52982-4 0  9990","line2":"2 33321  97.6627 248.3495 0034825 230.2010 129.6137 14.83466385972506","mean_motion":14.83466385,"eccentricity":0.0034825,"inclination_deg":97.6627,"raan_deg":248.3495,"arg_perigee_deg":230.201,"mean_anomaly_deg":129.6137,"bstar":5.2982e-5,"rev_number":97250,"period_min":97.069944729486,"perigee_km":594.03830027289,"apogee_km":642.76920662065,"semimajor_km":6996.5407534468,"source":"CELESTRAK","updated_at":"2026-09-20T09:00:34.550115Z"}}}